Location: Newark
(23.1300°N, 73.6109°E)
Time: 06:20:01
(UTC+00:00)

Hubble Space Telescope - Pass Details

Date: 27 July 2021
Orbit: 535 x 539 km, 28.5° (Epoch: 19 September)

Event Time Altitude Azimuth Distance (km) Brightness Sun altitude
Rises 15:21:38 0° 283° (WNW) 2,667 5.6 -19.7°
Reaches altitude 10° 15:24:01 10° 292° (WNW) 1,776 4.6 -20.2°
Maximum altitude 15:27:51 38° 1° (N) 826 1.9 -20.9°
Enters shadow 15:29:18 28° 45° (NE) 1,016 2.0 -21.2°
